Simultaneous Nadir Overpasses (SNOs) Predictions

Prediction of SNOs between LANDSAT-8 and METOP-B Satellite Orbit:

Table of predicted SNOs for the next 14.0 days since TLE Epoch: 6/16/2022
Index Date (LANDSAT-8) Time (LANDSAT-8) Lat,Lon (LANDSAT-8) SZA (LANDSAT-8 ) Date (METOP-B) Time (METOP-B) Lat,Lon (METOP-B) SZA (METOP-B ) Distance(km) Time Diff (sec)
1 06/18/2022 06:23:36 81.15, 124.52 59.93 06/18/2022 06:23:08 81.15, 124.36 59.90 2.72 28
2 06/18/2022 07:13:01 -81.19, -67.18 119.97 06/18/2022 07:13:46 -81.18, -67.13 119.95 0.84 45
3 06/21/2022 01:57:52 81.15,-168.98 59.89 06/21/2022 01:57:30 81.16,-168.97 59.89 0.63 22
4 06/21/2022 02:47:18 -81.17, -1.01 120.06 06/21/2022 02:48:10 -81.17, -1.18 120.06 2.93 52
5 06/23/2022 21:32:07 81.17,-102.23 59.95 06/23/2022 21:31:52 81.16,-102.36 59.92 2.32 15
6 06/23/2022 22:21:33 -81.19, 65.76 120.01 06/23/2022 22:22:31 -81.19, 65.84 119.97 1.43 58
7 06/26/2022 17:06:22 81.16, -35.98 59.98 06/26/2022 17:06:13 81.17, -35.80 60.00 3.23 9
8 06/26/2022 17:55:48 -81.18, 132.04 119.97 06/26/2022 17:56:53 -81.18, 132.06 119.94 0.39 65
9 06/29/2022 11:51:36 -80.49,-145.68 121.27 06/29/2022 11:50:22 -80.72,-146.46 121.18 29.20 74
10 06/29/2022 12:40:37 81.16, 30.52 60.10 06/29/2022 12:40:36 81.16, 30.33 60.08 3.30 1



Historial Predications of SNOs between LANDSAT-8 and METOP-B
